Location: Unspecified
(29.9680°N, 0.0000°E)
Time: 15:27:58
(UTC+00:00)

Explorer 7 - Pass Details

Date: 27 June 2019
Orbit: 485 x 680 km, 50.3° (Epoch: 21 August)

Event Time Altitude Azimuth Distance (km) Brightness Sun altitude
Rises 05:40:50 0° 225° (SW) 2,589 9.7 7.0°
Reaches altitude 10° 05:42:57 10° 225° (SW) 1,730 8.8 7.4°
Maximum altitude 05:46:53 89° 305° (NW) 538 6.9 8.2°
Drops below altitude 10° 05:51:05 10° 45° (NE) 1,846 11.0 9.0°
Sets 05:53:24 0° 46° (NE) 2,781 11.8 9.5°
